Maritime Instructor — WCW8625 — position and weather

sailwx.info

Track history (hours):
 
Tides and Currents Weather Stations Pressure Air Temp Water Temp Dewpoint Dewpoint Depression Visibility Wind Speed Wind Dir Waves Ship Positions

Maritime Instructor

Owner: WASHINGTON, STATE OF, SEATTLE, WA. More information available from US FCC via Universal Licensing System and Coast Guard Vessel Documentation Center.

Last reported at 2014-Jun-20 22:58 UTC. Time now 2014-Oct-31 04:00 UTC.
Position N 47°40' W 122°23'.
Warning: this ship's position is months out of date.

Length 30 m; draft 2 m.

Type: Ship. MMSI: 303556000.

Date/timePositionNaut miles runAvg speedWind from/ knotsBaromVisibWave heightAir tempDewpointWater temp
2014-Jun-20 22:58N 47°40' W 122°23'1 3.0
2014-Jun-20 22:33N 47°39' W 122°21'0 0.0
2014-Jun-20 22:33N 47°39' W 122°21'3 2.9
2014-Jun-20 21:28N 47°39' W 122°16'3 4.5
2014-Jun-20 20:53N 47°39' W 122°20'2 5.2
2014-Jun-20 20:33N 47°40' W 122°22'0 0.0
2014-Jun-20 20:33N 47°40' W 122°22'  
2014-Jun-18 01:09N 47°40' W 122°23'0 0.0
2014-Jun-18 01:09N 47°40' W 122°23'2 2.7
2014-Jun-18 00:33N 47°40' W 122°25'0 5.8
2014-Jun-18 00:29N 47°41' W 122°25'8 8.6
2014-Jun-17 23:33N 47°34' W 122°31'2 9.4
2014-Jun-17 23:19N 47°35' W 122°34'4 4.8
2014-Jun-17 22:33N 47°33' W 122°38'0 0.2
2014-Jun-17 21:32N 47°33' W 122°38'0 0.0
2014-Jun-17 20:33N 47°33' W 122°38'1 2.6
2014-Jun-17 20:08N 47°34' W 122°37'5 8.5
2014-Jun-17 19:33N 47°34' W 122°30'011.9
2014-Jun-17 19:32N 47°34' W 122°30'7 6.8
2014-Jun-17 18:33N 47°40' W 122°24'0 0.6
2014-Jun-17 18:12N 47°40' W 122°24'  
2014-Jun-14 00:52N 47°40' W 122°23'1 3.0
2014-Jun-14 00:33N 47°40' W 122°24'0 2.4
2014-Jun-14 00:32N 47°40' W 122°24'8 8.0
2014-Jun-13 23:33N 47°48' W 122°25'013.0
2014-Jun-13 23:32N 47°48' W 122°25'1413.9
2014-Jun-13 22:33N 47°59' W 122°37'9 2.2
2014-Jun-13 18:32N 48°07' W 122°43'1312.8
2014-Jun-13 17:33N 47°56' W 122°33'015.4
2014-Jun-13 17:33N 47°56' W 122°33'1413.8
2014-Jun-13 16:34N 47°44' W 122°25'041.9
2014-Jun-13 16:34N 47°44' W 122°25'4 4.4
2014-Jun-13 15:34N 47°40' W 122°23'0 0.1
2014-Jun-13 15:28N 47°40' W 122°23'  
2014-Jun-11 01:46N 47°40' W 122°23'0 0.8
2014-Jun-11 01:33N 47°40' W 122°23'0 3.6
2014-Jun-11 01:31N 47°40' W 122°23'5 5.1
2014-Jun-11 00:33N 47°43' W 122°29'0 5.6
2014-Jun-11 00:31N 47°43' W 122°29'6 5.0
2014-Jun-10 23:23N 47°40' W 122°36'  
Track history (hours):
 
Tides and Currents Weather Stations Pressure Air Temp Water Temp Dewpoint Dewpoint Depression Visibility Wind Speed Wind Dir Waves Ship Positions

Maritime Instructor

Owner: WASHINGTON, STATE OF, SEATTLE, WA. More information available from US FCC via Universal Licensing System and Coast Guard Vessel Documentation Center.

Last reported at 2014-Jun-20 22:58 UTC. Time now 2014-Oct-31 04:00 UTC.
Position N 47°40' W 122°23'.
Warning: this ship's position is months out of date.

Length 30 m; draft 2 m.

Type: Ship. MMSI: 303556000.

Date/timePositionNaut miles runAvg speedWind from/ knotsBaromVisibWave heightAir tempDewpointWater temp
2014-Jun-20 22:58N 47°40' W 122°23'1 3.0
2014-Jun-20 22:33N 47°39' W 122°21'0 0.0
2014-Jun-20 22:33N 47°39' W 122°21'3 2.9
2014-Jun-20 21:28N 47°39' W 122°16'3 4.5
2014-Jun-20 20:53N 47°39' W 122°20'2 5.2
2014-Jun-20 20:33N 47°40' W 122°22'0 0.0
2014-Jun-20 20:33N 47°40' W 122°22'  
2014-Jun-18 01:09N 47°40' W 122°23'0 0.0
2014-Jun-18 01:09N 47°40' W 122°23'2 2.7
2014-Jun-18 00:33N 47°40' W 122°25'0 5.8
2014-Jun-18 00:29N 47°41' W 122°25'8 8.6
2014-Jun-17 23:33N 47°34' W 122°31'2 9.4
2014-Jun-17 23:19N 47°35' W 122°34'4 4.8
2014-Jun-17 22:33N 47°33' W 122°38'0 0.2
2014-Jun-17 21:32N 47°33' W 122°38'0 0.0
2014-Jun-17 20:33N 47°33' W 122°38'1 2.6
2014-Jun-17 20:08N 47°34' W 122°37'5 8.5
2014-Jun-17 19:33N 47°34' W 122°30'011.9
2014-Jun-17 19:32N 47°34' W 122°30'7 6.8
2014-Jun-17 18:33N 47°40' W 122°24'0 0.6
2014-Jun-17 18:12N 47°40' W 122°24'  
2014-Jun-14 00:52N 47°40' W 122°23'1 3.0
2014-Jun-14 00:33N 47°40' W 122°24'0 2.4
2014-Jun-14 00:32N 47°40' W 122°24'8 8.0
2014-Jun-13 23:33N 47°48' W 122°25'013.0
2014-Jun-13 23:32N 47°48' W 122°25'1413.9
2014-Jun-13 22:33N 47°59' W 122°37'9 2.2
2014-Jun-13 18:32N 48°07' W 122°43'1312.8
2014-Jun-13 17:33N 47°56' W 122°33'015.4
2014-Jun-13 17:33N 47°56' W 122°33'1413.8
2014-Jun-13 16:34N 47°44' W 122°25'041.9
2014-Jun-13 16:34N 47°44' W 122°25'4 4.4
2014-Jun-13 15:34N 47°40' W 122°23'0 0.1
2014-Jun-13 15:28N 47°40' W 122°23'  
2014-Jun-11 01:46N 47°40' W 122°23'0 0.8
2014-Jun-11 01:33N 47°40' W 122°23'0 3.6
2014-Jun-11 01:31N 47°40' W 122°23'5 5.1
2014-Jun-11 00:33N 47°43' W 122°29'0 5.6
2014-Jun-11 00:31N 47°43' W 122°29'6 5.0
2014-Jun-10 23:23N 47°40' W 122°36'  

Dump ship's entire track history